sat.trackr.live / text

‹ back to catalog

KORSAT-1

NORAD 59452 · 2024-066L

PAYLOAD ACTIVE UNKNOWN

§ Identity

Operator
Country
SKOR
Launch date
2024-04-07
Launch site
AFETR
Launch vehicle
Mass (kg)
RCS (m²)

External: N2YO · Heavens-Above · Gunter

§ Orbital elements

Epoch: 2026-09-22T21:47:27.646368Z

Period
96.09 min
Inclination
45.4119°
Eccentricity
0.0006613
Mean motion
14.98613517 rev/d
Perigee alt
566.6 km
Apogee alt
575.8 km
Semi-major
6,949.3 km
B*
1.6941e-4
RAAN
97.9355°
Arg perigee
232.9299°
Mean anomaly
127.0975°
Rev number
13,471

§ Raw data

KORSAT-11 59452U 24066L   26265.90795887  .00001835  00000+0  16941-3 0  99972 59452  45.4119  97.9355 0006613 232.9299 127.0975 14.98613517134713

JSON: /api/v1/satellites/59452 · /tle

For live sub-satellite position, see the globe view (requires WebGL).

§ Visibility from observer

Set your observer location to see the next 7 days of passes ≥ 10°. The values pass through the URL so the page stays shareable.

No JS? Fill the form by hand. The geolocation button needs JavaScript.